This is the latest recevied weather packets stored in our database for station/object VK3PBR-10. If no packets are shown the sender has not sent any weather packets the latest 10 day(s).
| Time | Temp. | Humidity | Pressure | Rain* | Wind** | Luminosity | Snow |
|---|---|---|---|---|---|---|---|
| 1787687144 | 12.78° C | 77% | 1026.4 hPa | - | - | - | - |
| 1787686243 | 12.22° C | 78% | 1026.3 hPa | - | - | - | - |
| 1787685343 | 11.11° C | 78% | 1026.1 hPa | - | - | - | - |
| 1787684443 | 10.56° C | 76% | 1025.9 hPa | - | - | - | - |
| 1787683543 | 11.11° C | 77% | 1025.7 hPa | - | - | - | - |
| 1787682642 | 11.11° C | 77% | 1025.5 hPa | - | - | - | - |
| 1787681741 | 11.67° C | 76% | 1025.4 hPa | - | - | - | - |
| 1787680841 | 12.22° C | 76% | 1025.1 hPa | - | - | - | - |
| 1787679941 | 12.22° C | 77% | 1025 hPa | - | - | - | - |
| 1787679041 | 12.78° C | 77% | 1025 hPa | - | - | - | - |
| 1787678141 | 13.33° C | 76% | 1025 hPa | - | - | - | - |
| 1787677241 | 13.89° C | 76% | 1024.9 hPa | - | - | - | - |
| 1787676340 | 13.89° C | 77% | 1024.9 hPa | - | - | - | - |
| 1787675440 | 13.89° C | 78% | 1024.9 hPa | - | - | - | - |
| 1787674540 | 13.89° C | 77% | 1312.2 hPa | - | - | - | - |
| 1787673639 | 14.44° C | 77% | 1024.8 hPa | - | - | - | - |
| 1787672739 | 14.44° C | 77% | 1024.6 hPa | - | - | - | - |
| 1787671838 | 14.44° C | 76% | 1024.5 hPa | - | - | - | - |
| 1787670938 | 14.44° C | 77% | 1024.3 hPa | - | - | - | - |
| 1787670038 | 15° C | 76% | 1024.1 hPa | - | - | - | - |
| 1787669137 | 15° C | 76% | 1024.1 hPa | - | - | - | - |
| 1787668237 | 15° C | 76% | 1023.9 hPa | - | - | - | - |
| 1787667337 | 15° C | 76% | 1023.7 hPa | - | - | - | - |
| 1787666437 | 15.56° C | 76% | 1023.5 hPa | - | - | - | - |
| 1787665537 | 15° C | 76% | 1023.6 hPa | - | - | - | - |
* Rain since midnight (hover to see other rain measurements)
** Current wind speed in m/s (hover to see current wind gust speed)